Regional Weather Roundup
Issued by NWS Bismarck, ND

Home | Current Version | Previous Version | Text Only | Print | Product List | Glossary On
Versions: 1 2 3 4 5 6 7 8 9 10 11 12 13 14 15 16 17 18 19 20 21 22 23 24 25 26 27 28 29 30 31 32 33 34 35 36 37 38 39 40 41 42 43 44 45 46 47 48 49 50
000
ASUS43 KBIS 272010
RWRBIS

NWR BROADCAST TEXT
NATIONAL WEATHER SERVICE BISMARCK ND
200 PM CST THU NOV 27 2014

NOTE: "FAIR" INDICATES FEW OR NO CLOUDS BELOW 12,000 FEET WITH NO
SIGNIFICANT WEATHER AND/OR OBSTRUCTIONS TO VISIBILITY.


CITY           SKY/WX    TMP DP  RH WIND       PRES   REMARKS
WILLISTON      LGT SNOW  21  17  84 SE9       29.89F VSB 1   WCI  11
MINOT          LGT SNOW  13   7  77 SE13      30.08F WCI  -2
MINOT AFB      LGT SNOW  12   9  85 SE13      30.08F FOG     WCI  -3
BISMARCK       CLOUDY    10   4  76 SE10      30.13F WCI  -4
DICKINSON      FRZ RAIN  21  17  84 SE20G30   29.86F FOG     WCI   6
GARRISON         N/A     11   8  88 SE13      30.05F WCI  -4
HETTINGER ARPT CLOUDY    21  17  84 S15       29.94F WCI   8
JAMESTOWN      CLOUDY     3  -5  69 S13       30.24F WCI -14
BEACH          CLOUDY    27  25  93 S21       29.83F WCI  13
CARRINGTON     FAIR       1   0  92 SE18      30.19F WCI -19
CROSBY         LGT SNOW  21  19  93 SE15      29.95F VSB 3/4 WCI   8
HARVEY         FAIR       9   1  72 SE12      30.16F WCI  -6
HAZEN          LGT SNOW  14   9  79 SE13      30.06F VSB 1   WCI   0
LINTON         CLOUDY     9   5  85 SE13G21   30.11F WCI  -7
MANDAN         FLURRIES   9   7  92 E14       30.08F WCI  -8
OAKES            N/A      5  -2  72 SE10      30.29F WCI -10
RUGBY          FAIR       7   0  72 SE12      30.16F WCI  -9
STANLEY        LGT SNOW  14  14 100 SE17      29.97F VSB 3/4 WCI  -3
TIOGA          LGT SNOW  16  16 100 SE18      29.96F VSB 3/4 WCI  -1
$$

CITY           SKY/WX    TMP DP  RH WIND       PRES   REMARKS
GRAND FORKS    CLOUDY     5  -3  69 S10       30.37F WCI -10
GRAND FORKS AF MOSUNNY    6  -4  62 S12       30.34F WCI  -9
DEVILS LAKE    CLOUDY     5  -8  56 SE14      30.19F WCI -12
FARGO          SUNNY      6  -5  60 SE10      30.37F WCI  -9
CANDO          MOCLDY     7   0  72 S12       30.21F WCI  -9
CAVALIER       FAIR       7   0  72 S13       30.31F WCI  -9
GRAFTON        FAIR       7  -4  61 S13G18    30.34F WCI  -9
GWINNER        CLEAR      5  -4  66 SE7       30.33F WCI  -7
LANGDON        FAIR       7   0  72 S16       30.20F WCI -11
ROLLA          FAIR       7   1  78 S14       30.15F WCI -10
WALHALLA         N/A      9   0  66 S12       30.29F WCI  -6
$$

CITY           SKY/WX    TMP DP  RH WIND       PRES   REMARKS
ABERDEEN       CLOUDY     9  -2  61 SE13      30.27F WCI  -7
MOBRIDGE       CLOUDY    18  11  74 S21       30.09F WCI   1
BUFFALO          N/A     28  21  75 S15       29.83F WCI  16
RAPID CITY     PTSUNNY   31  26  82 S8        29.94F
GLASGOW        MOSUNNY   31  28  89 E13       29.75F
SIDNEY         CLOUDY    28  25  86 SE12      29.87F WCI  18
WOLF POINT     CLOUDY    33  28  81 E9        29.80F
GLENDIVE       CLOUDY    32  25  74 S9        29.82F
MILES CITY     CLOUDY    37  30  75 S7        29.82F
BAKER          CLOUDY    34  26  72 SE12      29.84F
$$

CITY           SKY/WX    TMP DP  RH WIND       PRES   REMARKS
BILLINGS       PTSUNNY   47  30  51 SW26G32   29.86F
GREAT FALLS    SUNNY     57  35  43 SW36G47   29.74F
REGINA         SNOW      12   9  85 E14       29.98F VSB 1/2 WCI  -3
ESTEVAN        LGT SNOW  12   9  85 E15       29.98  FOG     WCI  -4
$$



USA.gov is the U.S. government's official web portal to all federal, state and local government web resources and services.